This demonstration page uses our WeatherBlox Daily Observations layout. Learn more.

Left ArrowRight Arrow

41.55636, -103.73856

Hourly Observations for May 4, 2020

Temp ( °F °C ) Dew Point ( °F °C ) Humidity (%) Winds ( mph kmh ) Pressure ( in mb ) Visibility ( mi km ) Precip ( " mm )
12:58 am 00:58 Mostly Cloudy with Light Showers 58 14.3 47 8.3 67 67 SSW 10 17 29.93 1014 10 16 N/A
1:58 am 01:58 Mostly Cloudy with Light Showers 54 12.1 45 7.4 73 73 SSW 17 28 29.92 1013 10 16 0.07 1.78
2:58 am 02:58 Mostly Cloudy 53 11.4 46 8 80 80 SW 8 13 29.88 1012 10 16 N/A
3:58 am 03:58 Mostly Cloudy 53 11.9 45 7.4 74 74 W 7 11 29.84 1011 10 16 N/A
4:58 am 04:58 Mostly Cloudy with Light Showers 54 12.2 45 7.1 71 71 W 14 22 29.92 1013 10 16 N/A
5:58 am 05:58 Cloudy with Light Rain 53 11.9 45 7.3 74 74 WSW 8 13 29.89 1012 10 16 0.06 1.52
6:58 am 06:58 Mostly Cloudy with Light Showers 52 11.1 46 7.9 81 81 S 10 17 29.88 1012 10 16 0.02 0.51
8:56 am 08:56 Mostly Cloudy 48 9.1 46 7.8 92 92 SW 5 7 29.89 1012 10 16 0.04 1.02
9:58 am 09:58 Cloudy with Showers 49 9.4 46 8 91 91 WNW 7 11 29.90 1013 10 16 0.05 1.27
10:58 am 10:58 Cloudy with Light Showers 48 8.8 45 7 89 89 WNW 15 24 29.93 1014 10 16 0.08 2.03
11:58 am 11:58 Cloudy with Light Rain 47 8.1 44 6.5 90 90 WNW 14 22 29.95 1014 10 16 0.02 0.51
12:58 pm 12:58 Mostly Cloudy 46 7.6 43 6 90 90 WNW 12 19 29.97 1015 10 16 N/A
1:58 pm 13:58 Mostly Cloudy 48 8.9 42 5.7 81 81 NW 18 30 29.96 1015 10 16 N/A
2:58 pm 14:58 Mostly Cloudy 51 10.5 43 6.3 75 75 NW 22 35 29.99 1016 10 16 N/A
3:58 pm 15:58 Mostly Cloudy 52 10.9 43 6.3 73 73 NNW 24 39 29.99 1016 10 16 N/A
4:58 pm 16:58 Mostly Cloudy 54 12.4 42 5.7 64 64 NNW 17 28 30.00 1016 10 16 N/A
5:58 pm 17:58 Mostly Cloudy 55 12.5 42 5.5 63 63 N 17 28 29.98 1015 10 16 N/A
6:58 pm 18:58 Mostly Cloudy 56 13.6 40 4.7 55 55 NNW 18 30 29.99 1016 10 16 N/A
7:58 pm 19:58 Mostly Cloudy 51 10.6 43 6.2 74 74 NE 23 37 30.04 1017 10 16 N/A
8:58 pm 20:58 Mostly Cloudy with Light Rain 50 9.9 44 6.4 79 79 NNE 6 9 30.09 1019 10 16 N/A
10:58 pm 22:58 Mostly Cloudy 48 8.8 37 3 67 67 N 22 35 30.14 1021 10 16 N/A
11:58 pm 23:58 Sunny 49 9.3 37 2.8 64 64 NNW 15 24 30.15 1021 10 16 N/A

Powered by AerisWeather